Starlink 4776

operational
NORAD ID: 53837 Int'l Des: 2022-114 Owner: SPXS Country: US Constellation: starlink
LEOCIRCULAR

关于 Starlink 4776

正在加载描述...

实时位置

正在加载3D地球...

即将过境

高度历史

Altitude vs Time

uPlot chart will show altitude changes over time

两行轨道根数

1 53837U 22114V 25257.54504236 -.00000591 00000-0 -19054-4 0 9996
2 53837 53.2200 14.5749 0001203 92.9634 267.1496 15.08836939166245
Epoch: Sep 14, 2025 • Age: 31 hours

当前状态

高度 545.5 km
速度 7.60 km/s
星下点 53.21°N, 162.54°E
发射日期 Sep 19, 2022
运行时间 2.9 years
类型 internet

技术详情

分类 Payload
质量 305.00 kg
干质量 290.00 kg
总质量 305.00 kg
长度 0.20 m
直径 2.80 m
跨度 9.00 m
形状 Box + pan
制造商 SPXS
平台类型 Starlink
阶段状态 In Orbit
所有者/国家 SPXS/US

大型星座

Loading constellations...